Location: Navalespino
(40.5894°N, 4.2660°W)
Time: 02:30:42
(UTC+00:00)

Cosmos 1697 Rocket - Pass Details

Date: 18 April 2024
Orbit: 832 x 843 km, 71.0° (Epoch: 28 May)

Event Time Altitude Azimuth Distance (km) Brightness Sun altitude
Exits shadow 22:00:16 64° 260° (W) 930 2.9 -29.4°
Maximum altitude 22:00:48 68° 295° (WNW) 904 2.9 -29.4°
Drops below altitude 10° 22:06:27 10° 19° (NNE) 2,469 5.5 -30.1°
Sets 22:08:56 0° 22° (NNE) 3,408 6.2 -30.4°
